Weather Roundup
Issued by NWS

Home | Current Version | Previous Version | Graphics & Text | Print | Product List | Glossary Off
Versions: 1 2 3 4 5 6 7 8 9 10 11 12 13 14 15 16 17 18 19 20 21 22 23 24 25 26 27 28 29 30 31 32 33 34 35 36 37 38 39 40 41 42 43 44 45 46 47 48 49 50

000
NZUS93 KARX 220510
HRRWXR

CURRENT HOURLY OBSERVATIONS ACROSS
MUCH OF THE UPPER MISSISSIPPI VALLEY
NATIONAL WEATHER SERVICE LA CROSSE WI
1100 PM CST TUE NOV 21 2017


...SOUTHEAST MINNESOTA...


CITY           SKY/WX    TMP DP  RH WIND       PRES   REMARKS
ROCHESTER      CLOUDY    18  12  77 NW12      30.26S WCI   5
ROCHESTER/MAYO FAIR      20  13  73 NW10      30.28R WCI   9
WINONA           N/A     23  12  63 NW10      30.30R WCI  12
AUSTIN         CLOUDY    19  12  73 NW9       30.28R WCI   9
ALBERT LEA     CLOUDY    19  10  68 NW10      30.30R WCI   8
DODGE CENTER   PTCLDY    18  10  73 NW9       30.27S WCI   6
PRESTON        CLEAR     19  11  73 NW9       30.27R WCI   7
OWATONNA       CLOUDY    18  12  79 NW9       30.30S WCI   6
FARIBAULT      CLOUDY    18  12  79 NW6       30.31R WCI   9
$$

...ELSEWHERE IN MINNESOTA...


CITY           SKY/WX    TMP DP  RH WIND       PRES   REMARKS
MINNEAPOLIS    CLOUDY    19  11  70 NW10      30.32R WCI   7
INTNL FALLS      N/A     10   5  80 W5        30.22R WCI   2
DULUTH         FLURRIES  15   9  76 NW14      30.21S WCI   0
RED WING       CLEAR     19   9  63 NW3       30.30R
REDWOOD FALLS  CLOUDY    18   9  68 NW6       30.35R WCI  10
MANKATO        NOT AVBL
WORTHINGTON    CLOUDY    14   6  70 NW9       30.33S WCI   2
FAIRMONT       CLOUDY    19  10  68 NW12      30.34R WCI   7
$$

...SOUTHWEST WISCONSIN...


CITY           SKY/WX    TMP DP  RH WIND       PRES   REMARKS
LA CROSSE      CLEAR     25  12  58 NW10      30.28R WCI  15
PRAIRIE DU CHI CLEAR     22  12  65 W7        30.29S WCI  14
BOSCOBEL       CLEAR     24  12  60 CALM      30.28R
LONE ROCK      CLEAR     21  14  74 W7        30.26S WCI  12
PLATTEVILLE    CLEAR     21  16  81 W6        30.25R WCI  14
FORT MC COY    CLEAR     19  12  73 CALM      30.26R
CAMP DOUGLAS   CLEAR     16  10  79 W7        30.22S WCI   6
MAUSTON-NEW LI CLEAR     21  13  70 W6        30.23R WCI  14
VIROQUA        FAIR      20  15  79 W5        30.23R WCI  14
WIS DELLS      CLEAR     21  12  69 NW3       30.21F
$$

...ELSEWHERE IN WISCONSIN...


CITY           SKY/WX    TMP DP  RH WIND       PRES   REMARKS
MILWAUKEE      PTCLDY    28  15  58 NW8       30.19R WCI  20
MADISON        CLEAR     22  13  68 NW5       30.21S WCI  16
GREEN BAY      CLOUDY    25  13  60 NW9       30.19R WCI  15
EAU CLAIRE     PTCLDY    19   9  65 NW8       30.27R WCI   9
BLACK RVR FLS  FAIR      18   9  68 CALM      30.25R
MEDFORD        FLURRIES  17  10  71 N12       30.18R WCI   5
WAUSAU         CLOUDY    20  11  68 NW9       30.17R WCI   9
WIS RAPIDS     CLEAR     20  11  68 NW8       30.22R WCI  10
MARSHFIELD     CLEAR     16   9  74 NW6       30.19R WCI   7
RICE LAKE      CLEAR     17   9  70 NW8       30.28R WCI   6
$$

...NORTHEAST IOWA...


CITY           SKY/WX    TMP DP  RH WIND       PRES   REMARKS
WATERLOO       CLOUDY    20  12  71 NW6       30.32S WCI  12
DUBUQUE        CLEAR     21  13  71 NW8       30.26R WCI  11
DECORAH        CLEAR     19  12  73 W6        30.27R WCI  11
MASON CITY     CLOUDY    19  10  68 NW10      30.33R WCI   7
CHARLES CITY   CLOUDY    19  12  73 NW7       30.30S WCI  10
OELWEIN        CLEAR     19  16  86 NW12      30.30S WCI   7
$$

...ELSEWHERE IN IOWA...


CITY           SKY/WX    TMP DP  RH WIND       PRES   REMARKS
DES MOINES     CLOUDY    23  12  62 NW8       30.36S WCI  14
IOWA CITY      CLEAR     24  15  68 NW8       30.33R WCI  15
FORT DODGE     CLOUDY    19  12  74 CALM      30.34S
MARSHALLTOWN   CLOUDY    20  13  74 NW7       30.31F WCI  11
CEDAR RAPIDS   CLEAR     18  13  80 NW5       30.29S WCI  11
$$

...NORTHERN ILLINOIS...


CITY           SKY/WX    TMP DP  RH WIND       PRES   REMARKS
CHICAGO-OHARE  PTCLDY    28  15  58 NW8       30.20R WCI  20
CHICAGO-MIDWAY CLEAR     29  15  56 NW13G21   30.21R WCI  19
MOLINE         CLEAR     25  16  68 NW8       30.28R WCI  16
ROCKFORD       CLEAR     22  14  71 NW7       30.26R WCI  13
PEORIA         CLEAR     27  17  66 NW7       30.27R WCI  19
$$

NOTE: "FAIR" INDICATES FEW OR NO CLOUDS BELOW 12,000 FEET WITH NO
SIGNIFICANT WEATHER AND/OR OBSTRUCTIONS TO VISIBILITY. WIND
SPEEDS ARE IN MILES-PER-HOUR.




USA.gov is the U.S. government's official web portal to all federal, state and local government web resources and services.